[[{"header":{"parameterUnit":"m.s-1","parameterCategory":1,"la1":30.2991,"la2":30.254,"lo1":-89.0895,"lo2":-89.0444,"dy":0.0017,"dx":0.0017,"nx":28,"ny":28,"refTime":"2024-07-30T21:00:00:Z","depth":0,"parameterNumber":2,"parameterNumberName":"U-component_of_WINDS"},"data":[0,0,0,0,0,0,0,0,0,0,0,0,0,0,0,0,0,0,0,0,0,0,0,0,0,0,0,0,0,0,0,0,0,0,0,0,0,0,0,0,0,0,0,0,0,0,0,0,0,0,0,0,0,0,0,0,0,0,1.7335,1.7335,0,1.737,1.7371,1.7371,1.73,1.7297,1.7295,1.7293,1.7328,1.7331,1.7334,0,0,0,0,0,0,0,0,0,0,0,0,0,1.7204,1.7207,1.7335,1.7335,1.7336,1.737,1.7371,1.7371,1.73,1.7297,1.7294,1.7292,1.7327,1.733,1.7334,0,0,0,0,0,0,0,0,0,0,0,0,0,1.7253,1.7208,1.7335,1.7305,1.7302,1.737,1.7371,1.7371,1.7301,1.7297,1.7294,1.729,1.7325,1.733,1.7335,1.7433,0,0,1.7349,1.7351,0,0,0,0,0,0,0,0,1.725,1.7257,1.7309,1.7307,1.7304,1.7327,1.7337,1.7392,1.7302,1.7301,1.7293,1.7289,1.733,1.7334,1.7348,1.7435,1.7436,1.7349,1.7352,1.7354,1.7355,0,0,0,0,0,0,0,1.7247,1.7256,1.7349,1.7309,1.7307,1.7289,1.7292,1.7347,1.7335,1.7301,1.7296,1.7301,1.7328,1.7344,1.7349,1.7437,1.7349,1.7353,1.7356,1.7358,1.7604,1.7608,0,0,0,0,0,0,1.7247,1.7253,1.7348,1.735,1.7268,1.7294,1.7297,1.7323,1.7334,1.7332,1.7304,1.7298,1.7338,1.7343,1.735,1.7465,1.7354,1.7358,1.7361,1.76,1.7605,1.7609,0,0,0,0,0,0,1.7245,1.7257,1.7346,1.73,1.731,1.73,1.733,1.7326,1.7341,1.7336,1.7334,1.7323,1.7335,1.7343,1.7413,1.7465,1.736,1.7365,1.7596,1.7602,1.7607,1.7696,0,0,0,0,0,0,1.7241,1.7256,1.7294,1.7302,1.7313,1.7409,1.7333,1.7329,1.735,1.7342,1.7353,1.7352,1.7333,1.7406,1.7417,1.7469,1.7368,1.7591,1.7598,1.7605,1.7688,1.7704,1.7718,0,0,0,0,0,1.7237,1.7318,1.7296,1.7308,1.736,1.7413,1.7419,1.7397,1.7354,1.7392,1.7388,1.7351,1.7458,1.7414,1.7426,1.748,1.7588,1.7596,1.7605,1.7682,1.7701,1.7717,0,0,0,0,0,0,1.7316,1.7318,1.7294,1.738,1.7397,1.74,1.7447,1.7418,1.7447,1.7438,1.7409,1.7412,1.7487,1.749,1.7441,1.7575,1.7515,1.7527,1.757,1.7588,1.7603,1.76,1.7372,0,0,0,0,0,1.7343,1.7386,1.7386,1.7461,1.7471,1.7458,1.748,1.7461,1.7477,1.7484,1.7485,1.7502,1.7539,1.7564,1.7598,1.7689,1.769,1.7732,1.7747,1.7759,1.7768,1.7816,1.7834,1.7637,1.7637,1.7636,0,0,1.74,1.7406,1.7435,1.7477,1.7488,1.7532,1.7464,1.7514,1.7547,1.7491,1.7557,1.7559,1.7575,1.7656,1.7691,1.7661,1.7823,1.7769,1.7779,1.7782,1.7826,1.7845,1.7862,1.7642,1.7641,1.764,0,0,1.7526,1.7536,1.7599,1.7612,1.7629,1.762,1.7635,1.7644,1.7643,1.7708,1.7667,1.7705,1.777,1.7783,1.7798,1.7929,1.7895,1.7941,1.8016,1.8063,1.8078,1.8092,1.8137,1.8154,1.7951,1.7951,1.7951,0,1.7594,1.766,1.7635,1.7688,1.7707,1.766,1.7723,1.7736,1.7764,1.7778,1.7744,1.7823,1.7831,1.7913,1.7945,1.796,1.7975,1.7939,1.8078,1.8092,1.8104,1.8147,1.8164,1.7956,1.7956,1.7955,1.7955,0,1.7742,1.7789,1.7838,1.7866,1.789,1.7949,1.7932,1.796,1.7939,1.7934,1.8,1.8008,1.8042,1.806,1.8041,1.814,1.812,1.8083,1.8022,1.8128,1.8168,1.8185,1.7964,1.7962,1.796,1.7959,0,0,1.7918,1.7932,1.795,1.7962,1.7978,1.8013,1.8068,1.8102,1.8126,1.8147,1.8192,1.8248,1.8213,1.823,1.8211,1.8252,1.8354,1.8209,1.8209,1.8235,1.8462,1.849,1.8509,1.8332,1.8335,1.8338,1.8461,0,1.8042,1.8138,1.8117,1.8211,1.8253,1.8209,1.8257,1.8271,1.8268,1.8302,1.8297,1.8337,1.8289,1.8299,1.8337,1.8334,1.8399,1.8325,1.8373,1.8375,1.8369,1.853,1.8559,1.8675,1.8476,1.8479,1.8481,0,1.8199,1.8226,1.8324,1.8333,1.835,1.8393,1.8422,1.8456,1.8471,1.8466,1.8485,1.8458,1.8512,1.8452,1.8525,1.8475,1.8493,1.8495,1.8499,1.8501,1.8433,1.8536,1.8711,1.8728,1.8505,1.8503,1.8502,0,1.8316,1.8377,1.8443,1.8455,1.8467,1.8498,1.8505,1.8517,1.8538,1.8563,1.8576,1.8608,1.8624,1.8649,1.8631,1.8589,1.8707,1.8645,1.8703,1.8703,1.8728,1.8727,1.8908,1.8743,1.8743,1.8742,1.8742,0,1.8456,1.8517,1.8496,1.8537,1.8604,1.858,1.8647,1.8648,1.8659,1.8698,1.8662,1.8699,1.8674,1.8709,1.8696,1.8758,1.8766,1.8762,1.8758,1.8765,1.8765,1.8776,1.8767,1.8747,1.8746,1.8745,1.8744,0,1.8597,1.8585,1.8654,1.866,1.8663,1.8712,1.8717,1.8754,1.8748,1.8798,1.8809,1.8798,1.8838,1.8823,1.8865,1.8856,1.8935,1.8921,1.893,1.8926,1.8984,1.8978,1.9177,1.9201,1.9022,1.9024,1.9025,0,1.8686,1.8732,1.8743,1.8767,1.8776,1.8816,1.8838,1.8816,1.8839,1.886,1.8895,1.8932,1.896,1.9025,1.9021,1.9053,1.9038,1.9105,1.9042,1.9048,1.9037,1.9034,1.9038,1.9117,1.912,1.9121,1.9123,0,1.8845,1.8837,1.887,1.8901,1.8928,1.8952,1.8972,1.8994,1.8972,1.9001,1.9042,1.9063,1.9107,1.9143,1.9171,1.9177,1.9146,1.9143,1.9157,1.9164,1.9167,1.9165,1.8963,1.9138,1.9136,1.9135,1.9134,1.9134,1.8962,1.9001,1.9014,1.9052,1.9065,1.9085,1.912,1.9118,1.9152,1.9185,1.917,1.9217,1.923,1.9265,1.9275,1.931,1.9284,1.9306,1.9311,1.9316,1.9323,1.9163,1.9316,1.9315,1.9315,1.9314,1.9314,0,1.9118,1.9124,1.916,1.9189,1.9219,1.9188,1.9209,1.9235,1.9277,1.9292,1.9321,1.9367,1.9402,1.9401,1.9433,1.9462,1.9448,1.9471,1.9467,1.9469,1.9346,1.9329,1.9481,1.9481,1.9481,1.9481,1.9481,1.9481,1.9202,1.9266,1.9259,1.9329,1.9335,1.9381,1.9395,1.9412,1.9424,1.9478,1.9507,1.9506,1.9515,1.9547,1.9578,1.9576,1.9589,1.9617,1.961,1.9494,1.9478,1.9462,1.9446,1.962,1.962,1.973,1.9731,1.9732]},{"header":{"parameterUnit":"m.s-1","parameterCategory":1,"la1":30.2991,"la2":30.254,"lo1":-89.0895,"lo2":-89.0444,"dy":0.0017,"dx":0.0017,"nx":28,"ny":28,"refTime":"2024-07-30T21:00:00:Z","depth":0,"parameterNumber":3,"parameterNumberName":"V-component_of_WINDS"},"data":[0,0,0,0,0,0,0,0,0,0,0,0,0,0,0,0,0,0,0,0,0,0,0,0,0,0,0,0,0,0,0,0,0,0,0,0,0,0,0,0,0,0,0,0,0,0,0,0,0,0,0,0,0,0,0,0,0,0,3.5195,3.5195,0,3.5196,3.5196,3.5196,3.5194,3.5194,3.5194,3.5194,3.5192,3.5191,3.5191,0,0,0,0,0,0,0,0,0,0,0,0,0,3.5187,3.5187,3.5195,3.5195,3.5195,3.5196,3.5196,3.5196,3.5194,3.5194,3.5194,3.5194,3.5192,3.5191,3.5191,0,0,0,0,0,0,0,0,0,0,0,0,0,3.5189,3.5187,3.5195,3.5194,3.5194,3.5196,3.5196,3.5196,3.5194,3.5194,3.5194,3.5194,3.5192,3.5191,3.5191,3.5192,0,0,3.5191,3.5191,0,0,0,0,0,0,0,0,3.5189,3.5189,3.5194,3.5194,3.5194,3.5195,3.5192,3.5194,3.5194,3.5194,3.5194,3.5194,3.5192,3.5192,3.5192,3.5192,3.5192,3.5191,3.5191,3.5191,3.5191,0,0,0,0,0,0,0,3.5189,3.5189,3.5195,3.5194,3.5194,3.5192,3.5193,3.5192,3.5193,3.5194,3.5194,3.5194,3.5192,3.5193,3.5192,3.5192,3.5191,3.5191,3.5191,3.5191,3.5188,3.5188,0,0,0,0,0,0,3.5189,3.5189,3.5195,3.5195,3.5192,3.5193,3.5193,3.5195,3.5194,3.5193,3.5195,3.5194,3.5193,3.5192,3.5192,3.5191,3.5191,3.5191,3.5191,3.5188,3.5188,3.5188,0,0,0,0,0,0,3.5189,3.519,3.5195,3.5192,3.5193,3.5193,3.5195,3.5195,3.5195,3.5194,3.5194,3.5195,3.5193,3.5192,3.5192,3.5191,3.5191,3.5191,3.5188,3.5188,3.5188,3.5189,0,0,0,0,0,0,3.5189,3.519,3.5192,3.5192,3.5193,3.5196,3.5195,3.5195,3.5195,3.5195,3.5194,3.5194,3.5193,3.5192,3.5192,3.5191,3.5191,3.5188,3.5188,3.5188,3.5189,3.5189,3.5189,0,0,0,0,0,3.5189,3.5192,3.5192,3.5193,3.5195,3.5196,3.5196,3.5196,3.5195,3.5196,3.5194,3.5194,3.5191,3.5192,3.5191,3.5191,3.5188,3.5188,3.5188,3.5189,3.5189,3.5189,0,0,0,0,0,0,3.5191,3.5192,3.5192,3.5196,3.5196,3.5196,3.5197,3.5196,3.5196,3.5196,3.5194,3.5194,3.5192,3.5191,3.5192,3.5189,3.5189,3.5189,3.519,3.519,3.519,3.519,3.5191,0,0,0,0,0,3.5192,3.5194,3.5195,3.5198,3.5198,3.5197,3.5198,3.5197,3.5197,3.5196,3.5195,3.5194,3.5192,3.5191,3.519,3.5189,3.5187,3.5188,3.5188,3.5188,3.5188,3.5184,3.5184,3.5188,3.5188,3.5188,0,0,3.5194,3.5195,3.5196,3.5198,3.5198,3.5198,3.5197,3.5198,3.5198,3.5196,3.5195,3.5194,3.5192,3.519,3.5189,3.5189,3.5186,3.5188,3.5188,3.5187,3.5184,3.5183,3.5183,3.5188,3.5188,3.5188,0,0,3.5198,3.52,3.5201,3.5201,3.5201,3.52,3.52,3.52,3.5199,3.5198,3.5196,3.5194,3.5193,3.519,3.5189,3.5188,3.5186,3.5187,3.5187,3.5184,3.5183,3.5183,3.518,3.518,3.5187,3.5187,3.5187,0,3.52,3.5202,3.5202,3.5203,3.5202,3.5201,3.5201,3.52,3.5199,3.5198,3.5198,3.5194,3.5192,3.5189,3.5188,3.5188,3.5186,3.5188,3.5184,3.5183,3.5183,3.518,3.518,3.5187,3.5187,3.5187,3.5187,0,3.5204,3.5204,3.5206,3.5205,3.5204,3.5205,3.5203,3.5202,3.5201,3.5199,3.5196,3.5194,3.5191,3.519,3.5189,3.5185,3.5185,3.5184,3.5184,3.5183,3.518,3.5179,3.5187,3.5187,3.5187,3.5187,0,0,3.521,3.5208,3.5208,3.5207,3.5205,3.5205,3.5203,3.5201,3.5199,3.5198,3.5195,3.5192,3.5191,3.5189,3.5187,3.5184,3.518,3.5183,3.5183,3.5181,3.5173,3.5173,3.5172,3.5179,3.5179,3.5179,3.5173,0,3.5213,3.5212,3.5211,3.521,3.5209,3.5206,3.5204,3.5202,3.5199,3.5197,3.5193,3.5191,3.519,3.5188,3.5186,3.5182,3.5178,3.5182,3.5174,3.5174,3.5174,3.5171,3.5172,3.5166,3.5172,3.5172,3.5172,0,3.5216,3.5215,3.5213,3.5209,3.5209,3.5208,3.5204,3.5202,3.5198,3.5196,3.5192,3.519,3.5186,3.5186,3.5178,3.518,3.5177,3.5174,3.5174,3.5172,3.5173,3.5168,3.5165,3.5164,3.5171,3.5171,3.5171,0,3.5219,3.5216,3.5215,3.5214,3.5209,3.5208,3.5206,3.5202,3.5199,3.5195,3.5193,3.5188,3.5185,3.518,3.5175,3.5176,3.5167,3.5167,3.5163,3.5163,3.5162,3.5162,3.5156,3.5161,3.5161,3.5161,3.5161,0,3.5221,3.522,3.5216,3.5215,3.5212,3.5209,3.5206,3.5204,3.5199,3.5196,3.5193,3.5189,3.5183,3.5178,3.5174,3.5167,3.5166,3.5162,3.5161,3.5162,3.5163,3.516,3.5159,3.5161,3.5161,3.5161,3.5161,0,3.5224,3.5222,3.5219,3.5215,3.5213,3.5211,3.5206,3.5204,3.52,3.5196,3.5194,3.5188,3.5182,3.5177,3.5168,3.5165,3.5157,3.5156,3.5159,3.5158,3.5154,3.5153,3.5145,3.5143,3.515,3.515,3.515,0,3.5226,3.5225,3.5219,3.5217,3.5215,3.5212,3.5209,3.5205,3.5202,3.5195,3.5192,3.5186,3.518,3.5169,3.5163,3.5155,3.5153,3.5151,3.5152,3.5152,3.5151,3.5151,3.515,3.5151,3.5151,3.5151,3.5151,0,3.5227,3.5225,3.5223,3.5218,3.5215,3.5211,3.5207,3.5205,3.5199,3.5195,3.5189,3.5184,3.5175,3.5167,3.5158,3.5154,3.515,3.515,3.5148,3.5149,3.515,3.5148,3.5157,3.515,3.515,3.515,3.515,3.515,3.5229,3.5227,3.5222,3.5218,3.5214,3.5209,3.5206,3.5202,3.5197,3.5189,3.5187,3.5179,3.5171,3.5159,3.5154,3.5147,3.5146,3.5145,3.5144,3.5143,3.5142,3.5152,3.5145,3.5145,3.5145,3.5145,3.5145,0,3.5229,3.5225,3.5222,3.5216,3.5211,3.5209,3.5204,3.52,3.5194,3.5187,3.5182,3.5172,3.5164,3.5156,3.5147,3.5142,3.514,3.514,3.5139,3.5138,3.5144,3.5146,3.5141,3.5141,3.5141,3.5141,3.5141,3.5141,3.5229,3.5224,3.5221,3.5214,3.521,3.5203,3.52,3.5195,3.5189,3.5179,3.5173,3.5168,3.516,3.515,3.5141,3.5139,3.5135,3.5134,3.5131,3.5137,3.5138,3.5138,3.514,3.5134,3.5134,3.5125,3.5125,3.5125]}]]